Theta_e
346 348 349 346 353 351 357 357 352 351 350 348 348 346 347 346 347 349 344 342 343 342 342 341 341 338 334 336 332 334 335 332 331 330 332 332 332 331 331 333 333 334 332 331 332 334 338 338 340
348 348 349 346 354 354 354 351 353 349 348 348 348 348 346 347 345 345 345 342 342 342 343 342 339 335 333 337 336 335 333 330 331 330 331 332 331 329 330 333 335 334 334 331 332 333 335 339 340
348 342 345 349 352 355 353 351 350 348 348 349 347 347 346 345 345 345 344 344 344 343 344 339 336 335 332 333 334 332 331 332 329 329 331 332 329 332 331 333 335 336 334 330 333 335 334 336 339
342 343 349 356 359 353 352 351 349 350 349 348 347 347 346 346 344 344 344 344 343 343 341 340 338 333 331 332 332 332 331 331 331 331 332 331 333 337 334 335 335 339 337 332 336 337 337 336 338
347 347 353 356 355 351 351 348 350 350 349 348 348 349 346 346 343 343 343 343 343 342 340 339 338 332 330 332 332 331 330 329 330 332 333 331 338 337 337 338 339 338 339 335 338 338 339 341 340
351 347 354 354 351 351 351 350 350 350 349 348 348 348 348 346 343 342 343 342 341 341 340 337 335 333 330 331 332 332 331 330 330 333 332 332 339 341 341 340 340 337 338 338 338 339 341 344 343
345 345 349 350 349 353 352 351 349 349 348 348 345 347 348 344 343 342 342 342 341 341 339 337 335 332 331 330 332 333 332 331 331 333 332 337 346 342 340 340 341 337 337 340 341 341 342 343 344
342 338 347 348 352 351 350 350 349 349 349 347 343 347 348 344 342 342 341 341 342 340 338 337 336 334 331 331 332 333 332 330 332 333 338 345 346 344 342 339 339 337 342 344 345 345 343 344 344
341 341 346 346 346 348 350 350 349 350 348 345 347 343 343 345 346 347 347 344 340 340 339 338 338 336 333 332 332 333 331 331 332 333 338 346 346 344 343 342 340 340 343 345 345 345 341 340 341
342 340 341 340 340 347 349 350 349 350 347 350 349 344 345 347 348 348 348 345 342 341 340 338 338 338 336 334 333 333 331 331 333 334 340 344 344 344 346 343 345 345 345 344 343 343 340 341 344
343 346 341 341 343 347 349 349 350 349 348 350 346 345 347 348 348 348 348 346 342 342 340 340 339 338 337 335 333 331 331 331 332 338 341 345 346 345 346 345 345 346 343 342 344 342 343 344 342
346 343 344 343 341 343 348 349 349 348 347 348 343 344 346 348 349 348 348 347 346 343 342 340 339 337 335 334 332 331 331 332 335 340 341 345 344 346 344 343 344 344 345 343 342 342 342 341 342
346 343 340 341 342 341 347 348 349 348 348 347 347 346 347 347 348 347 346 345 348 347 344 342 338 335 334 331 330 331 332 335 338 344 343 343 344 346 346 346 344 344 343 342 343 343 342 339 339
327 333 332 333 334 341 347 348 348 349 349 349 348 348 347 347 347 348 348 348 348 347 342 341 338 334 331 330 331 333 338 345 344 347 347 345 344 345 346 344 344 343 342 343 342 343 341 339 340
328 329 328 328 331 337 344 347 349 347 349 350 350 349 348 347 348 349 349 347 346 346 346 341 336 335 333 331 338 335 343 346 347 345 348 348 346 346 346 345 346 345 342 342 342 344 343 340 340
325 325 327 329 334 335 339 343 346 347 349 351 351 350 349 348 347 347 347 345 347 346 346 345 344 342 340 335 341 343 346 344 348 346 347 348 348 347 347 347 345 345 344 348 346 344 343 342 340
321 326 326 326 335 337 336 339 347 348 349 350 351 351 350 350 349 347 346 346 346 345 346 348 346 346 344 339 344 346 347 347 347 347 347 347 347 348 349 347 343 343 344 346 347 342 341 342 340
324 324 324 326 329 338 337 339 348 348 349 351 351 351 351 351 350 348 346 346 346 346 346 343 345 346 346 342 347 346 347 348 348 348 347 348 348 348 348 348 346 345 345 345 342 343 340 337 332
324 325 324 325 329 338 337 337 349 347 346 347 350 351 352 351 350 351 350 348 347 347 347 344 346 347 347 346 347 348 348 349 349 348 347 347 348 348 348 348 348 346 343 345 342 343 341 330 336
322 323 323 323 328 336 335 338 340 348 347 346 347 348 350 351 350 350 350 350 349 347 346 346 345 348 349 349 346 345 344 347 347 348 347 347 348 348 348 349 347 345 345 344 341 341 338 332 334
321 321 323 323 325 336 337 339 338 347 348 348 347 347 347 347 347 346 347 347 348 349 348 348 346 348 349 349 349 348 346 344 345 346 346 347 348 346 350 348 347 345 344 343 343 341 329 333 335
321 321 323 324 324 324 336 342 339 344 348 347 347 347 347 347 346 345 346 346 346 346 348 348 347 348 350 349 349 349 349 348 346 342 345 346 345 346 346 347 348 346 343 342 342 343 335 334 336
324 323 323 324 323 324 328 336 334 339 344 342 343 345 346 346 346 345 345 344 345 345 346 348 348 348 349 349 349 349 349 348 348 341 346 345 346 345 346 348 349 347 343 341 344 343 328 335 334
324 323 320 322 320 323 325 326 327 340 339 338 336 342 344 344 345 346 345 345 345 346 345 346 347 347 347 348 349 349 349 348 347 349 345 346 347 348 348 349 350 345 342 341 341 340 330 325 334
322 318 320 319 321 324 321 326 327 330 338 338 337 337 342 343 344 344 344 345 346 346 346 346 346 347 347 348 348 348 348 348 347 347 348 343 350 350 347 349 350 343 336 338 339 333 326 323 323
319 319 317 319 320 323 322 326 327 330 335 338 339 339 338 341 342 343 343 344 344 346 346 346 346 346 347 347 347 347 348 348 348 347 347 342 349 348 345 345 349 346 341 335 332 325 324 327 323
321 320 319 317 319 319 322 323 325 329 332 334 337 337 338 339 341 342 343 343 343 345 345 345 346 346 346 346 347 347 347 348 349 346 345 342 348 345 344 346 347 346 343 335 330 325 321 321 319
321 316 320 311 321 322 318 322 323 327 329 330 336 337 339 339 340 341 342 342 343 343 343 344 345 345 345 346 346 347 347 348 349 348 340 344 346 346 345 347 347 346 337 332 327 323 319 322 320
322 320 317 315 314 320 319 321 320 324 327 329 332 338 340 340 340 340 342 342 342 342 344 344 344 345 345 346 346 346 347 348 349 350 341 342 344 344 347 348 347 341 338 334 332 335 324 320 321
322 323 317 318 318 316 321 320 323 322 324 324 328 334 338 341 341 341 341 341 342 343 343 344 344 344 345 345 346 346 347 348 349 350 347 336 343 343 348 349 348 347 343 343 343 343 341 332 322
Wind_Speed
12 10 6 2 0 1 3 3 1 3 3 2 7 11 9 8 2 4 26 28 31 32 30 30 28 29 28 28 29 28 25 23 21 19 18 17 15 13 12 12 13 13 13 12 13 12 12 10 8
13 12 2 2 1 2 4 3 3 2 10 19 15 12 7 4 9 25 24 31 31 31 29 30 30 29 28 27 26 25 23 21 20 18 16 14 13 12 11 11 13 13 13 13 12 13 11 9 8
12 7 5 2 1 1 3 3 7 12 12 4 7 11 5 4 19 30 33 32 30 28 29 31 30 28 27 26 24 23 22 20 18 17 15 14 13 12 11 12 13 14 14 14 14 13 12 9 8
6 4 5 2 5 5 5 8 17 12 9 7 18 10 10 2 20 27 33 32 34 29 30 29 28 27 26 25 23 22 21 19 17 15 14 14 12 12 13 12 13 14 14 14 14 13 13 10 9
6 5 2 2 4 4 2 11 11 7 6 16 11 7 12 12 22 31 34 34 32 30 28 27 26 26 26 24 22 20 19 17 15 14 13 13 13 15 14 13 13 12 13 13 13 12 11 11 9
4 2 1 3 4 1 1 15 9 10 13 18 18 14 5 12 28 30 33 31 28 28 27 26 24 25 25 23 21 19 17 14 13 13 13 12 12 13 13 13 12 11 12 12 12 11 10 9 10
4 3 3 2 2 3 4 14 10 16 14 10 19 5 14 27 27 29 28 27 26 26 27 26 25 24 24 23 20 18 16 13 13 13 12 12 12 11 11 11 11 10 11 14 13 10 9 8 10
4 3 3 5 7 4 10 14 16 16 6 20 24 7 14 34 30 27 25 25 26 26 26 26 25 24 24 23 20 18 15 13 14 12 11 10 10 10 8 10 10 11 12 11 9 8 7 8 8
4 0 3 7 7 5 15 5 16 5 21 11 10 18 34 36 30 28 27 25 26 25 25 25 25 24 23 22 21 18 16 13 13 11 10 8 6 6 8 9 10 10 10 9 6 7 6 6 7
5 3 6 6 1 12 25 21 22 8 20 2 10 22 38 36 32 32 31 29 29 27 27 25 25 24 23 23 21 19 16 14 13 10 11 7 6 5 7 6 7 8 9 5 4 3 4 6 7
6 6 1 8 13 14 29 20 17 17 9 14 33 43 41 38 35 33 31 28 28 25 25 26 26 25 24 22 21 19 17 15 12 11 10 7 5 2 6 7 8 7 7 5 2 5 2 4 4
4 13 13 20 6 13 16 21 10 29 15 27 38 44 46 40 39 36 34 30 28 28 26 26 26 25 23 21 21 18 17 15 13 11 10 7 6 6 5 6 5 6 4 3 4 4 3 5 3
8 10 14 26 24 15 26 21 15 32 7 31 38 42 44 43 41 36 35 31 28 27 28 28 27 26 23 23 20 19 16 14 14 12 9 9 6 5 3 3 3 3 1 1 1 2 4 1 4
8 27 28 24 27 22 21 18 14 27 21 35 40 42 41 44 43 39 37 35 33 27 27 28 28 26 24 24 21 18 15 15 14 13 9 7 7 5 4 3 3 4 2 2 3 5 3 5 1
11 6 8 13 22 12 33 17 22 25 35 37 39 40 40 42 41 41 38 36 35 31 27 27 28 25 27 25 21 21 18 16 12 13 12 9 8 7 4 5 6 6 3 5 3 4 2 5 5
3 3 3 4 3 8 29 17 19 32 39 35 37 37 39 42 42 41 38 35 35 33 32 29 28 25 24 28 24 23 18 16 15 14 15 13 10 8 6 5 7 10 9 5 5 9 9 10 7
4 5 5 5 4 6 6 4 11 37 38 35 35 36 38 39 41 43 42 37 37 35 34 33 31 27 23 29 25 23 20 17 18 17 16 12 11 11 7 6 5 8 9 8 8 6 4 5 8
5 4 5 4 2 2 3 4 18 32 34 36 36 35 35 37 47 45 44 40 41 38 35 33 32 29 25 26 27 26 23 19 21 18 14 12 10 12 9 8 8 9 10 7 7 5 5 5 2
3 4 6 5 5 5 11 7 20 28 26 27 31 34 36 41 49 45 44 42 42 42 39 36 36 33 32 31 30 31 29 25 23 20 17 15 14 14 12 10 10 10 9 7 6 7 6 6 6
7 8 12 0 7 5 6 13 19 22 32 39 37 37 41 43 37 44 44 44 45 44 43 41 40 36 34 31 29 31 29 29 28 25 21 16 15 15 14 12 12 10 12 10 8 8 9 12 10
6 9 10 8 2 0 5 3 10 21 18 26 31 40 39 42 44 46 45 45 46 49 47 43 42 41 38 34 29 28 25 28 32 32 29 22 18 16 15 14 14 12 13 15 11 11 6 12 12
8 6 8 3 4 3 5 4 6 16 21 20 29 33 37 40 41 42 49 46 46 46 45 45 43 42 42 39 34 32 30 29 27 27 29 23 18 19 15 14 16 13 13 15 14 12 8 13 11
11 5 6 4 5 1 5 1 6 17 18 20 24 35 39 42 44 49 52 54 53 47 46 45 45 44 43 42 38 35 34 30 25 25 26 24 22 21 20 19 17 16 15 15 15 12 9 14 11
5 1 4 3 3 5 16 9 9 12 22 23 24 38 44 44 48 52 57 56 54 52 50 48 48 47 45 43 41 38 35 32 29 27 27 27 25 23 23 22 19 16 17 17 15 11 10 13 14
5 7 4 3 4 10 9 6 15 8 22 28 27 40 49 49 50 52 50 50 52 57 56 54 53 51 49 47 44 40 38 32 30 29 27 27 28 26 25 23 21 17 14 15 13 13 13 12 14
9 11 6 7 4 9 5 9 8 17 17 31 41 48 44 43 47 50 58 59 59 59 60 59 58 56 53 50 46 42 40 35 29 29 28 30 31 26 23 22 22 18 15 14 15 15 14 14 14
7 10 13 2 1 2 5 8 6 8 11 11 21 26 35 43 47 55 56 60 61 60 62 63 62 59 57 53 49 46 42 39 32 27 29 31 33 28 24 24 23 19 18 17 17 16 15 15 15
15 8 4 2 11 12 5 7 5 8 15 10 11 19 32 40 48 58 54 57 60 62 63 63 63 63 60 56 52 49 44 40 36 29 31 32 35 32 28 27 25 21 20 20 18 17 18 17 16
6 7 3 7 6 9 4 10 9 10 10 11 12 25 34 41 51 55 58 53 56 59 58 62 61 62 63 60 54 51 48 44 40 33 32 35 34 33 30 28 25 22 22 21 21 18 18 20 18
14 16 9 5 12 9 12 11 1 13 15 10 13 23 36 48 55 57 57 50 49 52 56 60 60 60 61 60 57 51 49 47 44 38 34 37 37 35 31 30 29 26 25 24 23 21 21 21 21
Wind_Direction
146 143 155 134 297 50 271 297 296 87 62 20 111 121 117 43 47 132 144 141 146 147 147 148 147 144 139 135 137 136 134 132 130 127 123 116 117 108 98 95 84 77 76 79 84 92 95 105 122
145 133 105 41 32 12 292 273 344 54 123 100 87 99 61 72 106 137 150 148 147 146 148 148 148 149 143 140 139 137 134 132 129 125 118 117 106 95 92 86 76 74 75 78 80 86 96 103 114
148 114 120 76 142 234 290 344 117 130 139 93 110 75 75 87 130 143 150 155 159 153 150 150 153 153 148 146 144 139 134 130 127 121 121 111 94 86 88 81 70 72 76 82 84 86 95 102 98
155 66 64 54 297 228 211 173 139 153 87 71 101 75 84 105 132 149 150 153 156 153 151 153 157 158 154 151 148 143 135 131 125 124 117 105 91 86 83 77 74 75 81 89 91 89 90 94 98
149 59 49 302 277 284 162 164 155 130 75 110 104 90 109 139 146 146 150 153 154 153 154 155 158 160 160 157 153 148 143 136 127 123 118 103 93 89 85 82 77 78 89 95 96 96 96 90 98
100 94 182 247 269 93 79 160 153 107 118 112 106 104 108 158 151 149 154 156 157 156 160 159 163 165 166 163 161 157 151 144 134 129 118 106 97 93 86 86 83 86 93 100 101 101 97 87 73
138 148 233 241 233 128 176 179 158 135 129 123 132 92 136 156 155 153 157 162 167 165 166 165 167 168 170 170 168 165 161 150 143 133 123 112 96 104 89 93 97 97 104 107 103 100 91 80 74
214 124 198 219 213 214 164 185 164 139 112 139 132 157 163 161 154 151 156 162 168 170 172 171 171 173 175 175 176 174 170 160 151 138 126 110 116 109 106 99 106 106 106 108 101 87 73 63 51
196 184 222 201 181 190 167 140 166 164 143 151 184 166 164 158 158 160 163 169 175 178 179 177 177 178 179 179 181 182 176 170 158 150 141 129 122 118 106 106 110 112 108 113 108 90 55 51 34
182 164 227 184 181 175 171 167 173 137 160 119 144 159 155 159 170 171 173 175 178 182 184 184 184 183 184 186 187 186 182 174 166 159 151 140 129 127 109 130 113 119 114 103 97 87 54 32 46
187 231 14 256 26 172 169 178 173 149 197 180 153 155 161 166 181 181 180 182 183 182 185 188 189 190 190 189 188 188 183 176 172 164 169 163 144 128 119 114 119 114 107 86 96 57 56 355 353
239 236 258 283 265 202 196 184 175 173 193 183 168 165 166 174 185 188 186 186 187 190 191 193 193 195 193 192 191 187 183 179 175 175 181 175 157 125 126 116 114 97 106 76 34 9 4 316 326
231 269 256 253 258 248 184 200 181 195 219 179 166 167 173 178 187 191 193 189 189 194 197 196 196 197 194 191 189 185 184 185 173 173 187 184 171 161 153 164 124 98 118 99 65 290 300 46 117
226 236 255 266 262 205 170 203 191 207 178 169 172 174 180 184 189 193 199 196 197 195 195 194 197 195 194 191 187 184 187 180 185 186 190 191 192 197 237 221 198 217 217 270 299 324 316 160 178
257 247 248 242 247 189 185 196 207 186 173 170 176 179 185 192 192 195 200 200 197 199 194 194 192 195 199 197 192 185 179 188 192 209 217 214 210 219 245 239 248 233 225 239 267 296 286 234 267
265 162 255 273 156 227 162 195 205 178 168 178 181 182 190 197 198 201 202 203 202 202 200 193 192 192 197 192 184 187 198 212 221 218 224 223 219 222 237 264 250 249 242 268 268 293 283 253 234
336 246 236 313 223 150 158 163 172 173 172 180 187 184 192 200 203 205 206 206 207 204 204 202 201 198 197 196 196 195 202 219 220 219 215 216 220 226 243 258 270 245 244 262 280 286 252 222 252
213 230 259 146 298 199 52 176 166 180 176 183 187 188 193 203 207 207 208 209 211 210 210 208 206 205 203 203 204 207 212 217 217 215 218 225 222 236 243 254 261 256 254 262 281 248 217 276 239
189 249 258 137 298 132 214 181 180 186 189 190 188 192 195 207 210 211 211 211 213 216 215 217 213 210 209 209 208 210 216 219 223 224 231 237 238 246 250 257 260 265 241 246 236 219 249 219 174
221 232 262 116 206 161 208 214 192 183 201 193 189 194 201 209 211 214 217 216 216 218 216 218 217 213 211 212 212 218 224 225 230 232 232 236 232 236 244 258 259 264 238 239 244 244 280 196 196
224 209 244 241 25 49 105 344 173 202 206 203 204 202 202 203 201 211 213 216 220 220 217 216 218 217 215 213 212 216 221 229 235 232 231 234 238 236 247 253 248 262 244 243 247 250 250 195 194
235 204 258 264 52 239 131 255 187 194 212 207 208 208 209 212 210 208 212 213 217 220 221 220 219 218 217 216 214 216 218 222 226 225 225 228 223 237 236 240 247 259 249 238 248 248 233 212 210
239 190 225 182 207 230 227 209 264 178 212 217 214 212 214 213 212 211 213 215 217 219 221 222 221 220 219 218 219 219 221 230 230 220 219 218 221 228 240 241 244 256 242 238 241 243 237 211 222
176 232 8 29 142 242 245 175 247 187 204 212 216 214 215 212 214 216 215 216 219 220 222 223 223 222 221 221 223 225 227 233 230 226 226 227 229 235 238 238 242 256 242 235 239 238 232 221 224
133 114 249 271 206 239 210 195 227 206 203 209 207 214 216 211 212 216 216 213 219 221 222 223 224 224 223 223 225 229 231 238 239 232 230 225 224 233 230 234 238 245 235 232 233 231 227 226 221
199 179 167 198 203 241 163 229 230 210 226 214 212 216 215 211 211 214 218 219 217 222 223 223 225 225 225 225 227 231 234 237 238 236 234 229 228 230 229 234 238 242 238 237 235 229 231 235 233
195 194 197 157 187 7 229 276 297 203 229 227 212 213 208 207 208 216 217 220 221 219 223 225 226 228 229 229 228 229 233 235 235 234 231 232 227 230 231 238 239 241 236 235 240 239 232 235 233
193 172 166 346 218 242 264 247 229 196 220 232 220 202 209 210 210 220 220 219 222 223 227 226 227 228 230 229 230 230 233 234 235 234 228 227 224 229 232 236 234 240 233 230 236 240 237 237 233
192 196 182 156 165 223 234 255 179 205 222 206 219 214 212 215 217 219 226 220 222 224 223 228 227 228 229 230 230 231 231 233 233 233 231 225 226 226 231 229 232 234 229 228 231 236 241 242 238
209 210 168 169 223 240 237 231 307 192 201 198 229 231 229 222 224 224 223 219 216 218 223 227 228 229 231 230 229 231 233 234 233 231 232 224 226 225 229 227 231 235 234 234 238 241 245 245 243